Погода в Ларисовке

Россия / Белгородская область     51°02′25″N   38°16′22″E
темп.,
°C
ветер,
м/с
пор.,
м/с
влажн.,
%
обл.,
%
осадки,
мм/ч
давл.,
гПа
погр.,
м
1 августа, вс
вс100:00+21вюв11560 0.0 101111
03:00+20зюз11590 0.0 101211
06:00+20ююз11620 0.0 101311
09:00+27ююв23450 0.0 1013439
12:00+31ю33340 0.0 10122022
15:00+32юз33320 0.0 10122659
18:00+31ю12360 0.0 10111054
21:00+24ю335046 0.0 101126
2 августа, пн
пн200:00+23ююв3353100 0.0 101129
03:00+23ю345380 0.0 101169
06:00+22ю33620 0.0 101251
09:00+28юз45455 0.0 1012477
12:00+32ююз46352 0.0 10112543
15:00+33ююз572999 0.0 10093225
18:00+32ю473513 0.0 1007650
21:00+26юз51346100 0.0 1008249
3 августа, вт
вт300:00+20ссв1180100 0.0 100911
03:00+19ююз3693100 1.4 1010154
06:00+19юз49925 1.7 1010240
09:00+23з57720 2.4 1010682
12:00+26з555563 0.0 10111425
15:00+26з5654100 0.1 10101254
18:00+24сз6853100 0.3 1011749
21:00+19сз386617 0.3 1013186
4 августа, ср
ср400:00+17сз38730 0.0 1014168
03:00+15ссз36830 0.0 1015101
06:00+15ссз24830 0.0 101691
09:00+22сз33510 0.0 1017649
12:00+25з343474 0.0 10172589
15:00+22зсз3549100 0.0 1017288
18:00+25юз12385 0.0 1017922
21:00+19сз2250100 0.0 101719
5 августа, чт
чт500:00+16с22550 0.0 101812
03:00+16всв115776 0.0 101811
06:00+16ссв115996 0.0 101911
09:00+23юв114298 0.0 1019404
12:00+26юз23335 0.0 10181825
15:00+27зюз233295 0.0 10172251
18:00+22ссз4746100 0.0 1017204
21:00+22св2345100 0.0 101745